COSMOS 252 DEB, 3555

Orbit data source: Space-Track

COSMOS 252 DEB, 3555 is space debris in LEO originally from a launch on Fri, 01 Nov 1968 UTC launched from the Tyuratam Missile And Space Complex (TTMTR). Debris objects in space refer to the collection of defunct objects orbiting the Earth. Examples of debris include non-operational satellites, rocket bodies, and fragments generated from explosions, collisions, or faulty payload assembly.

Loading next visibility...
Identifier
3555, 1968-097H
Orbit
LEO
Last TLE update
11 hours ago
Origin
Manufacturer
Unknown
Mission
Spacecraft
Bus & Motor
Unknown
Mass
Unknown
Launch date (UTC)
1968-11-01 (57 years ago)
Launch vehicle
Unknown
Launch site
Tyuratam Missile And Space Complex (TTMTR)
Object type
Payload
Rocket body
Debris
Shape & HBR
Unknown
Radar Cross Section
Medium (>0.1 m² and <1 m²)

Expand to show TLE details & history

TLE from 11 hours ago
0 COSMOS 252 DEB
1  3555U 68097H   25200.00958058  .00000668  00000-0  25574-3 0  9998
2  3555  62.3142  38.3159 0922953 103.9867 266.5402 13.08133086693625
Epoch: 2025-07-19T00:13Z
TLE epoch observation values (Epoch: 2025-07-19T00:13:47.762Z)
Latitude
0.00004°
Longitude
97.81407°
Altitude
1,338.139 km
Speed
7.139 km/s
True Right ascension
02h 33m 15s
True Declination
0° 00' 00"
Sunlit
Object was in daylight at epoch
Visualization orbit readout
Latitude
52.64229°
Longitude
139.74008°
Altitude
677.74 km
Speed
7.796 km/s
Apparent Right ascension
09h 11m 22s
Apparent Declination
15° 08' 25"
Sunlit
Object is in daylight
Visualization observer readout
Local Sidereal Time
00:22:04
Azimuth
49.139° ENE
Elevation
-19.323°
Doppler factor
1
Orbital elements
Apogee altitude
1,931.498 km
Perigee altitude
527.225 km
Semi-major axis
7,607.498 km
Eccentricity
0.0923
Inclination
62.3142°
RAAN
38.3159°
Arg. of periapsis
103.9867°
True anomaly
256.114°
Mean anomaly
266.5402°
Eccentric anomaly
261.31274°
Mean motion
3.271 °/min
Orbital period
110.06 mins
BSTAR
0.00025574
Loading maneuver chart data...
Loading SW <> Apogee altitude chart data...
|